Location: Newark
(36.3167°N, 3.7500°E)
Time: 04:15:19
(UTC+00:00)

Hubble Space Telescope - Visible Passes

Search period start: 17 November 2019 00:00
Search period end: 27 November 2019 00:00
Orbit: 536 x 540 km, 28.5° (Epoch: 16 November)

Date Brightness Start Highest point End Pass type
(mag) Time Alt. Az. Time Alt. Az. Time Alt. Az.
17 Nov 3.1 18:26:59 10° SSW 18:28:34 13° S 18:28:34 13° S visible
18 Nov 2.8 18:15:50 10° SSW 18:18:25 16° SSE 18:18:38 16° SSE visible
19 Nov 2.6 18:04:49 10° SSW 18:07:43 18° SSE 18:08:41 17° SSE visible
20 Nov 2.6 17:53:55 10° SW 17:57:02 21° SSE 17:58:42 16° SE visible
21 Nov 2.5 17:43:05 10° SW 17:46:22 23° S 17:48:44 14° SE visible
21 Nov 3.8 19:23:34 10° WSW 19:24:04 13° WSW 19:24:04 13° WSW visible
22 Nov 2.5 17:32:18 10° SW 17:35:42 25° S 17:38:45 12° ESE visible
22 Nov 3.4 19:12:58 10° WSW 19:14:06 16° SW 19:14:06 16° SW visible
23 Nov 2.4 17:21:34 10° SW 17:25:01 26° S 17:28:29 10° ESE visible
23 Nov 3.1 19:02:23 10° WSW 19:04:09 19° SW 19:04:09 19° SW visible
24 Nov 2.4 17:10:52 10° SW 17:14:22 27° S 17:17:52 10° ESE visible
24 Nov 2.9 18:51:50 10° WSW 18:54:15 21° SSW 18:54:15 21° SSW visible
25 Nov 2.5 17:00:11 10° WSW 17:03:42 27° S 17:07:13 10° ESE visible
25 Nov 2.8 18:41:20 10° WSW 18:44:23 20° SSW 18:44:24 20° SSW visible
26 Nov 2.9 18:30:54 10° WSW 18:33:42 18° SSW 18:34:39 16° S visible
